Location: Ca��n del Saiz
(32.4430°N, 116.9450°W)
Time: 03:57:02
(UTC+00:00)

Daily predictions for brighter satellites

Satellite Brightness Start Highest point End
(mag) Time Altitude Azimuth Time Altitude Azimuth Time Altitude Azimuth
ASTRO E2 3.2 03:21:16 10° SW 03:25:01 41° SSE 03:28:46 10° E
Meteor 1-15 Rocket 4.4 03:19:57 10° N 03:25:55 88° W 03:31:46 10° S
Cosmos 1726 3.8 03:24:22 10° NE 03:26:51 17° ENE 03:29:19 10° ESE
FALCON 9 DEB 3.9 03:25:42 10° S 03:28:18 25° SE 03:30:54 10° ENE
Cosmos 1452 Rocket 3.9 03:26:24 10° S 03:31:22 43° ESE 03:36:20 10° NNE
Cosmos 220 Rocket 4.4 03:27:58 10° SSW 03:32:15 68° WNW 03:36:30 10° N
Cosmos 292 Rocket 3.8 03:27:40 10° S 03:32:26 66° ESE 03:37:14 10° NNE
Cosmos 1766 3.2 03:30:34 10° N 03:34:26 89° E 03:38:19 10° S
Sich 1 Rocket 4.4 03:35:30 10° NNW 03:39:46 54° W 03:44:03 10° S
OBJECT-B 0.7 03:37:46 10° SSE 03:40:57 80° ENE 03:44:08 10° N
Cosmos 407 Rocket 3.8 03:37:29 10° NNW 03:42:44 71° WSW 03:47:54 10° S
Cosmos 2360 Rocket 2.7 03:38:59 10° S 03:44:09 39° ESE 03:49:22 10° NE
Cosmos 1470 3.6 03:41:10 10° NNE 03:44:47 33° E 03:47:58 12° SE
FALCON 9 DEB 2.7 03:41:59 10° SW 03:45:03 68° SE 03:48:07 10° NE
SL-16 R/B 2.4 03:41:32 10° SSW 03:47:11 78° WNW 03:52:52 10° NNE
Cosmos 2322 Rocket 2.2 03:41:57 10° SSW 03:47:38 80° ESE 03:53:21 10° NNE
Cosmos 1378 Rocket 3.7 03:47:22 10° S 03:51:40 77° W 03:56:03 10° N
Meteor 2-10 4.0 03:46:50 10° N 03:51:55 66° E 03:57:07 10° SSE
FALCON 9 DEB 2.8 03:48:58 10° SSW 03:52:00 56° SE 03:55:03 10° NE
SJ-6B 3.0 03:49:13 10° S 03:53:19 79° W 03:57:23 10° NNW
Okean 1 Rocket 3.4 03:50:44 10° N 03:54:58 46° E 03:58:35 14° SSE
FALCON 9 DEB 2.7 03:52:14 10° SW 03:55:19 86° SE 03:58:25 10° NE
USA 186 3.3 03:54:30 10° SSW 03:56:59 31° W 03:59:39 10° NNW
ATLAS 3B R/B 3.1 03:51:24 10° S 03:57:09 34° ESE 04:02:59 10° NE
Cosmos 1190 Rocket 4.3 03:52:59 10° NNW 03:58:16 70° WSW 04:03:32 10° S
IGS 5A 4.5 03:58:32 17° SE 04:01:01 30° ENE 04:04:40 10° NNE
Resurs 1-3 3.6 03:57:57 12° SSE 04:01:55 66° ENE 04:06:16 10° N
MOS 1 4.3 03:56:30 10° SSE 04:02:10 72° ENE 04:07:51 10° N
Cosmos 2227 4.2 03:59:20 10° NNW 04:04:58 84° ENE 04:09:45 15° SSE
Helios 1A Rocket 4.2 04:03:06 10° SSW 04:06:53 38° W 04:10:41 10° NNW
Cosmos 1626 3.8 04:10:27 16° E 04:10:30 16° E 04:12:52 10° NE
COSMOS 2428 4.1 04:10:07 18° ESE 04:11:10 18° E 04:14:59 10° ENE
Cosmos 1707 2.9 04:08:26 10° S 04:12:16 75° W 04:16:10 10° N
Cosmos 1315 Rocket 2.8 04:09:08 10° N 04:13:15 70° E 04:16:00 20° SSE
Cosmos 2237 4.3 04:09:53 10° SSW 04:15:34 83° WNW 04:21:17 10° NNE
Cosmos 1025 Rocket 4.2 04:15:21 22° ESE 04:16:23 24° E 04:19:53 10° NE
IUS-18 SRM-1 4.2 03:58:34 10° WSW 04:17:33 54° S 04:20:37 21° ESE
BREEZE M DEB (TANK) 4.4 04:17:19 21° SSE 04:19:08 29° ESE 04:27:14 10° ENE
SL-4 R/B 3.0 04:17:50 10° S 04:23:59 17° E 04:25:08 10° ENE
KM-V1 3.6 04:19:23 10° W 04:21:52 71° S 04:23:38 27° E
Cosmos 1844 Rocket 4.0 04:18:34 10° N 04:23:17 26° ENE 04:25:49 19° E
Ariane Rocket 3.1 04:19:17 13° S 04:23:47 74° WSW 04:28:53 10° NNW
Meteor 2-20 Rocket 4.4 04:18:33 10° S 04:24:39 80° E 04:30:45 10° N
SPOT 3 Rocket 3.7 04:22:38 24° SE 04:25:39 55° ENE 04:30:42 10° N
CZ-2C R/B 3.8 04:25:17 10° NNE 04:30:02 64° E 04:33:21 19° S
Lacrosse 5 rocket 3.2 04:26:59 10° WSW 04:30:20 30° NW 04:33:35 10° NNE
Cosmos 1758 3.2 04:29:55 10° N 04:33:53 87° W 04:35:46 30° S
USA 215 4.4 04:29:30 10° ENE 04:32:56 20° ESE 04:32:56 20° ESE
Lacrosse 5 1.8 04:30:21 10° NW 04:35:26 84° SW 04:37:47 32° SSE
MetOp-B 4.3 04:33:44 29° SE 04:36:23 58° ENE 04:41:37 10° N
Cosmos 2263 Rocket 3.3 04:32:26 10° NW 04:37:43 40° WSW 04:42:23 13° S
In-Cosmos 22 4.3 04:32:32 10° SSW 04:37:47 68° W 04:43:02 10° N
Cosmos 1975 Rocket 3.0 04:35:59 19° S 04:39:04 85° W 04:43:27 10° N
Cosmos 2173 Rocket 4.4 04:33:17 10° N 04:39:22 45° E 04:42:02 30° SE
Landsat 7 3.7 04:38:33 30° SSE 04:40:53 82° ENE 04:45:39 10° N
Resurs 01 Rocket 1.8 04:44:07 28° S 04:46:20 68° WSW 04:50:44 10° NNW
SL-14 R/B 4.2 04:47:34 32° E 04:47:34 32° E 04:50:48 10° NNE
Cosmos 1110 Rocket 4.2 04:42:10 10° SSW 04:47:17 70° WNW 04:52:29 10° NNE
Cosmos 1727 Rocket 4.5 04:41:56 10° SSW 04:48:09 61° W 04:54:22 10° N
KORONAS-FOTON 4.0 04:47:02 27° SSW 04:48:56 66° W 04:52:42 10° N
Cosmos 2333 4.1 04:43:22 10° SSW 04:49:08 82° ESE 04:54:53 10° NNE
Delta 128 4.4 04:48:49 10° WSW 04:52:49 33° SSW 04:52:53 33° SSW
Cosmos 1674 3.3 04:53:58 26° SW 04:55:45 51° W 04:59:22 10° N
Meteor 2-5 Rocket 4.2 04:56:51 36° ESE 04:57:27 37° E 05:02:31 10° NNE
Cosmos 1953 2.2 04:54:45 10° N 04:58:49 74° E 04:59:13 66° SE
Yuri Rocket 4.3 04:53:37 10° WSW 04:59:42 60° S 05:04:41 25° E
Cosmos 2333 Rocket 2.1 04:58:01 16° SSW 05:02:38 87° ESE 05:08:23 10° NNE
Cosmos 2219 Rocket 2.1 05:00:53 28° S 05:03:58 75° ESE 05:09:39 10° NNE
ASTRO E2 2.6 05:01:17 10° W 05:05:00 72° SW 05:05:00 72° SW
H-2A R/B 3.7 05:04:58 10° SW 05:13:33 25° SSW 05:13:33 25° SSW
Cosmos 1802 Rocket 4.0 05:10:16 10° N 05:16:34 73° E 05:18:24 48° SSE
Cosmos 1844 3.7 05:12:29 10° NNW 05:18:02 65° ENE 05:19:00 55° ESE
Cosmos 1300 4.4 05:14:56 10° NNE 05:17:01 24° NE 05:17:01 24° NE
Meteor 2-11 Rocket 4.3 05:13:50 10° N 05:19:57 86° E 05:21:42 50° S
Cosmos 1340 2.9 05:20:42 65° NNW 05:20:42 65° NNW 05:24:02 10° N
Cosmos 1459 Rocket 3.9 05:14:41 10° N 05:20:44 82° W 05:22:46 45° S
ARIANE 5 R/B 2.5 05:23:09 84° ESE 05:23:13 85° ENE 05:27:42 10° N
Cosmos 2237 Rocket 3.6 05:26:04 23° ENE 05:26:04 23° ENE 05:28:53 10° NE
ERS-1 Rocket 3.0 05:24:12 61° E 05:24:32 63° ENE 05:29:31 10° N
Spot 2 Rocket 3.4 05:26:50 63° SSW 05:27:35 78° WSW 05:32:39 10° NNW
Cosmos 1544 Rocket 3.5 05:23:37 10° N 05:28:01 82° W 05:28:01 82° W
Cosmos 2360 Rocket 4.4 05:23:45 10° WSW 05:28:12 24° WNW 05:32:41 10° N
Meteor 1-24 Rocket 3.6 05:32:05 63° E 05:32:05 63° E 05:37:24 10° NNE
Cosmos 1455 Rocket 4.1 05:28:19 10° NNW 05:32:29 39° W 05:33:15 36° WSW
SPOT 1/Viking Rocket 4.4 05:35:03 34° SW 05:36:23 41° W 05:41:13 10° NNW
SL-8 R/B 4.3 05:36:04 10° NW 05:40:41 46° NE 05:40:51 46° NE
NOSS 0 Rocket 3.9 05:42:41 62° ESE 05:42:41 62° ESE 05:48:47 10° NNE
Cosmos 1626 4.3 05:44:54 19° W 05:45:29 20° WNW 05:48:17 10° NNW
ATLAS 3B R/B 4.0 05:41:44 10° WSW 05:47:39 36° NW 05:53:45 10° NNE
Cosmos 1864 Rocket 4.3 05:42:27 10° N 05:48:38 83° W 05:49:28 68° SSW
Cosmos 1461 4.2 05:45:26 10° NW 05:48:14 33° WNW 05:48:14 33° WNW
Terra 2.0 05:51:22 68° N 05:51:22 68° N 05:55:32 10° N
Cosmos 1900 4.5 05:48:07 10° NNW 05:52:25 67° NW 05:52:25 67° NW
ATLAS CENTAUR R/B 2.2 05:49:33 10° NNW 05:53:06 53° N 05:53:06 53° N
COSMOS 2428 3.5 05:52:02 26° SW 05:54:58 48° WNW 06:00:30 10° N
SPOT 5 3.2 05:55:13 62° W 05:55:13 62° W 06:00:09 10° NNW
Cosmos 2061 Rocket 4.2 05:50:38 10° NNW 05:57:00 68° W 05:58:08 57° SW
SL-4 R/B 3.6 05:57:14 10° WSW 06:01:07 33° NW 06:04:43 10° NNE
Cosmos 1447 Rocket 4.3 06:03:15 82° SE 06:03:28 85° E 06:09:40 10° N
Cosmos 2233 Rocket 3.8 05:57:59 10° N 06:04:10 80° E 06:04:15 79° E
Cosmos 2278 Rocket 3.4 05:59:38 10° N 06:04:25 29° ENE 06:04:25 29° ENE
Cosmos 1844 Rocket 3.7 06:02:03 10° NW 06:07:09 35° WSW 06:07:29 35° WSW
Cosmos 2228 4.5 06:03:13 10° N 06:05:50 33° NNE 06:05:50 33° NNE
USA 215 3.3 06:11:06 10° NE 06:17:38 77° NW 06:20:10 41° WSW
Cosmos 1867 4.2 06:18:28 10° NNW 06:23:04 49° NNE 06:23:04 49° NNE
Meteor 2-10 Rocket 4.2 06:28:40 10° NNW 06:32:21 48° NNW 06:32:21 48° NNW
Cosmos 968 Rocket 4.3 06:29:42 10° NNW 06:33:28 46° NW 06:33:28 46° NW
Cosmos 1980 4.1 06:35:10 58° NW 06:35:10 58° NW 06:40:28 10° NNE
Cosmos 1464 Rocket 4.3 06:46:41 10° N 06:52:11 62° NE 06:52:11 62° NE
SL-16 R/B 3.2 07:07:19 41° NNE 07:07:19 41° NNE 07:10:56 10° NNE
Cosmos 2237 Rocket 3.5 07:07:49 32° WNW 07:08:05 32° WNW 07:13:04 10° N
SJ 16-02 4.0 07:06:46 10° NNE 07:07:51 14° NE 07:07:51 14° NE
Cosmos 2034 Rocket 4.4 07:22:28 10° N 07:27:22 59° N 07:27:22 59° N
USA 229 DEB 4.2 07:32:11 48° NE 07:32:11 48° NE 07:36:57 10° NE
USA 229 4.2 07:32:18 48° NE 07:32:18 48° NE 07:37:02 10° NE
NOSS 3-1 (C) 4.2 07:40:35 43° N 07:40:35 43° N 07:44:52 10° NNE
ATLAS CENTAUR R/B 4.4 07:38:36 25° WNW 07:40:44 32° NNW 07:50:02 10° NNE
Cosmos 2278 Rocket 4.0 07:43:37 10° NW 07:46:15 23° WNW 07:46:15 23° WNW
NOSS 3-1 (A) 4.2 07:52:18 40° NNE 07:52:18 40° NNE 07:56:03 10° NNE
Resurs 1-4 Rocket 4.4 08:06:49 10° NE 08:08:42 15° ENE 08:08:42 15° ENE
Cosmos 1943 Rocket 3.1 08:11:46 10° NNW 08:15:29 43° N 08:15:29 43° N
Cosmos 1943 4.1 08:20:36 43° NE 08:20:36 43° NE 08:24:23 10° NNE
Cosmos 1603 4.4 08:29:21 50° NNE 08:29:21 50° NNE 08:33:27 10° NNE
USA 267 3.4 08:28:31 63° ENE 08:29:05 66° NE 08:35:34 10° NW
CZ-2D R/B 3.9 08:25:38 10° NE 08:28:31 22° ENE 08:28:31 22° ENE
DELTA 2 R/B (1) 4.5 08:40:36 46° NNE 08:40:36 46° NNE 08:45:01 10° ENE
BREEZE M DEB (TANK) 4.4 08:40:55 44° WNW 08:42:54 62° NNW 09:18:32 10° ENE
Cosmos 2279 Rocket 4.3 08:38:46 10° N 08:43:53 60° NNW 08:43:53 60° NNW
SJ 16-02 4.0 08:44:17 10° NW 08:44:49 13° NW 08:44:49 13° NW
SL-16 R/B 4.5 08:49:10 13° WNW 08:49:56 13° NW 08:52:33 10° NNW
Cosmos 1656 Rocket 4.4 08:51:24 10° N 08:56:50 48° ENE 08:56:50 48° ENE
Cosmos 1937 Rocket 4.3 08:53:29 10° N 08:57:55 48° NE 08:57:55 48° NE
Cosmos 1898 Rocket 4.4 08:53:41 10° NNW 08:57:21 46° N 08:57:21 46° N
BREEZE-M R/B 4.3 09:06:01 29° NNE 09:06:01 29° NNE 09:08:08 10° NE
ATLAS 5 CENTAUR R/B 4.0 09:05:06 48° S 09:05:53 48° S 09:44:57 10° ESE
Cosmos 2369 Rocket 2.8 09:03:26 10° NNW 09:07:41 51° NNW 09:07:41 51° NNW
Nadezhda 4 Rocket 4.2 09:13:38 61° NW 09:13:38 61° NW 09:19:06 10° N
ATLAS 5 CENTAUR R/B 3.3 09:15:35 27° NNE 09:15:35 27° NNE 09:17:37 10° NNE
Cosmos 2026 Rocket 4.3 09:14:14 56° ESE 09:14:35 56° E 09:20:44 10° NNE
Lacrosse 4 Rocket 4.0 09:16:57 10° NNE 09:19:30 16° ENE 09:21:02 13° E
Cosmos 1570 Rocket 4.5 09:23:49 55° NNW 09:23:49 55° NNW 09:28:03 10° N
Cosmos 2263 4.5 09:17:58 10° NNW 09:22:36 61° NNW 09:22:36 61° NNW
SL-19 R/B 4.4 09:24:05 10° NNE 09:29:15 60° E 09:29:15 60° E
Cosmos 372 Rocket 4.3 09:27:21 10° N 09:32:33 61° ENE 09:32:37 61° ENE
Aureole 3 Rocket 3.6 09:30:57 10° N 09:35:12 74° NE 09:35:12 74° NE
Cosmos 2208 Rocket 4.3 09:39:07 59° NW 09:39:07 59° NW 09:44:01 10° N
Cosmos 1932 4.2 09:35:28 10° NNW 09:41:39 79° WSW 09:41:39 79° WSW
ADEOS Rocket 4.0 09:40:16 20° SE 09:45:17 52° ENE 09:51:52 10° N
SL-16 R/B 2.4 09:45:19 67° SSE 09:46:15 90° WSW 09:52:28 10° NNW
Cosmos 2151 3.9 09:47:48 44° N 09:47:48 44° N 09:50:44 10° N
Resurs 1-4 Rocket 2.6 09:44:57 10° N 09:49:46 48° WNW 09:49:46 48° WNW
Cosmos 1627 Rocket 4.4 09:51:12 64° WSW 09:51:42 66° W 09:58:01 10° N
Cosmos 1092 Rocket 4.2 09:54:20 49° W 09:54:29 50° W 10:00:25 10° N
CZ-4C R/B 2.6 09:57:15 40° ESE 09:57:19 40° ESE 10:02:06 10° NE
ADEOS II 1.9 09:55:49 10° NNE 10:01:06 90° NW 10:01:29 78° SSW
NPP 4.0 09:58:11 10° N 10:03:20 47° WNW 10:03:27 47° WNW
Meteor 2-3 Rocket 3.5 10:02:58 72° SSW 10:03:32 82° W 10:09:08 10° N
GPS 2-04 Rocket1 3.4 10:06:15 50° NNE 10:06:15 50° NNE 10:09:46 10° ENE
ERBS 4.2 10:08:20 26° N 10:08:20 26° N 10:10:04 10° NNE
CZ-2D R/B 3.1 10:05:17 10° N 10:09:50 31° WNW 10:09:50 31° WNW
AQUA 4.3 10:05:25 10° N 10:09:41 45° WNW 10:09:41 45° WNW
Delta 2 Rocket 3.6 10:14:08 62° E 10:14:08 62° E 10:17:23 10° ENE
IDEFIX/ARIANE 42P 2.8 10:09:43 10° NNE 10:14:54 62° E 10:16:18 45° SSE
Cosmos 2084 Rocket 4.2 10:18:18 37° ESE 10:18:18 37° ESE 10:21:51 10° NE
Cosmos 1782 3.5 10:14:48 10° N 10:18:42 51° E 10:19:24 44° ESE
Cosmos 1655 Rocket 4.2 10:17:01 33° SSE 10:19:49 66° E 10:25:59 10° NNE
Chandra Rocket (1) 4.1 10:20:30 35° SSW 10:23:03 41° S 10:27:53 10° ESE
Cosmos 1809 Rocket 4.5 10:23:22 48° SW 10:24:55 65° W 10:31:03 10° N
Tianhe-1 2.2 10:30:07 43° ENE 10:30:07 43° ENE 10:32:23 10° ENE
Meteor 1-26 Rocket 4.3 10:25:49 10° N 10:31:45 85° W 10:34:48 31° S
CBERS-1 3.9 10:26:51 10° N 10:31:58 75° WNW 10:33:17 50° SW
Helios 1B rocket 4.4 10:29:48 10° NNW 10:31:53 17° WNW 10:31:53 17° WNW
IRS-1D 3.6 10:27:42 10° N 10:32:40 56° WNW 10:33:35 48° WSW
Cosmos 1328 Rocket 3.9 10:35:48 10° N 10:40:09 63° E 10:42:31 26° SSE
Meteor 1-28 Rocket 3.0 10:40:29 70° WSW 10:40:34 70° W 10:44:21 10° NNW
IRS-1C 4.2 10:35:33 10° NNE 10:40:53 73° ESE 10:43:30 31° S
Cosmos 773 Rocket 4.3 10:44:00 28° S 10:46:43 62° ESE 10:51:56 10° NNE
Cosmos 1933 4.4 10:43:21 10° NNW 10:46:25 30° WNW 10:46:25 30° WNW
Cosmos 44 3.8 10:45:39 31° S 10:47:58 58° ESE 10:53:14 10° NE
BREEZE-M DEB (TANK) 3.4 10:38:08 10° NW 10:48:01 71° SW 10:51:07 10° SE
DELTA 2 DEB (DPAF) 4.4 10:53:55 41° SW 10:54:48 47° W 10:59:06 10° NNW
ASC 2 Rocket 4.2 10:57:30 29° SSW 10:57:30 29° SSW 11:01:27 10° SE
Cosmos 1553 Rocket 4.3 10:52:01 10° NNW 10:57:57 47° W 11:00:51 28° SSW
SeaSat 1 2.6 10:53:18 10° NNE 10:58:09 58° WNW 11:00:13 33° SW
Lacrosse 4 Rocket 2.4 10:54:36 10° NW 10:57:14 28° W 10:57:14 28° W
MSX 3.8 10:52:40 10° N 10:58:24 71° WNW 11:01:36 27° SSW
FALCON 9 DEB 3.0 10:57:10 10° NW 11:00:33 86° NE 11:03:55 10° SE
Cosmos 2298 Rocket 4.3 10:55:32 10° NNW 11:00:35 45° WSW 11:02:58 28° SSW
BREEZE-M DEB (TANK) 4.3 11:01:55 15° SE 11:01:57 15° SE 11:03:24 10° E
Cosmos 1151 Rocket 3.2 10:58:33 10° NNW 11:02:39 47° W 11:03:52 36° SW
S3M 4.0 10:58:12 10° NNW 11:04:18 66° W 11:09:18 16° S
USA 281 3.2 11:00:43 10° SSE 11:07:16 90° ENE 11:13:53 10° NNW
Cosmos 1862 3.6 11:06:27 36° SW 11:07:37 48° W 11:11:33 10° N
Cosmos 1408 Rocket 3.8 11:06:08 33° SW 11:07:51 53° W 11:12:15 10° N
Cosmos 1515 Rocket 3.6 11:07:16 10° N 11:11:43 81° E 11:16:09 10° S
Cosmos 1833 Rocket 2.6 11:08:56 24° SSW 11:12:29 83° WNW 11:18:09 10° NNE
Lacrosse 5 rocket 4.4 11:12:11 10° N 11:14:26 15° NE 11:16:43 10° E
Meteor 2-6 Rocket 4.2 11:09:26 10° N 11:15:18 81° W 11:20:57 10° S
Cosmos 1125 Rocket 3.9 11:13:55 10° NNW 11:18:49 40° W 11:22:40 16° SSW
NOSS 3-4 (A) 3.5 11:17:02 18° SSW 11:21:26 69° ESE 11:27:22 10° NE
NOSS 3-4 (C) 3.5 11:17:07 17° SSW 11:21:33 68° ESE 11:27:29 10° NE
X-37B 2.9 11:19:17 10° NW 11:22:04 27° NNE 11:24:49 10° E
CZ-4B R/B 3.7 11:17:18 10° N 11:22:27 58° WNW 11:26:04 19° SSW
ARIANE 5 R/B 2.8 11:20:43 10° N 11:25:31 50° WNW 11:28:55 19° SW
Gbstr 26 Del rocket 3.4 11:24:32 21° SSW 11:27:29 70° SE 11:32:57 10° NE
Meteor 1-27 Rocket 4.3 11:24:06 10° N 11:29:33 58° E 11:34:57 10° SSE
ADEOS Rocket 4.4 11:27:14 18° SW 11:30:46 25° W 11:36:20 10° NW
ATLAS 2AS CENTAUR R/B 3.8 11:24:40 10° S 11:32:05 48° ESE 11:39:34 10° NE
Cosmos 2082 Rocket 2.3 11:30:36 10° SSW 11:36:05 75° ESE 11:41:42 10° NNE
OAO 3 Rocket 3.1 11:38:24 15° WSW 11:42:15 85° SSE 11:47:04 10° ENE
CZ-2C R/B 0.8 11:41:34 18° WSW 11:43:58 64° SSE 11:47:15 10° E
Cosmos 1812 3.9 11:41:32 10° NW 11:44:38 23° W 11:46:50 15° SW
CZ-2D R/B 4.2 11:41:24 10° N 11:45:09 35° WNW 11:48:11 14° SW
GPS 2-04 Rocket1 2.8 11:41:38 10° WNW 11:45:34 75° NNE 11:49:20 10° E
CZ-4C R/B 3.7 11:42:25 10° W 11:46:00 20° NW 11:50:00 10° N
PSLV R/B 4.1 11:42:19 10° NNE 11:46:39 62° E 11:50:57 10° S
FALCON 9 DEB 3.2 11:45:53 10° NW 11:48:56 66° NE 11:51:57 10° SE
CZ-2C R/B 2.7 11:46:06 10° N 11:49:54 67° WNW 11:53:36 10° SSW
Cosmos 1244 Rocket 4.5 11:44:25 10° SSW 11:50:38 71° W 11:56:50 10° N
Cosmos 1805 Rocket 3.6 11:47:24 10° SSW 11:51:43 63° W 11:56:05 10° N
Delta 2 Rocket 3.8 11:51:55 10° W 11:55:51 51° N 11:59:23 10° ENE
FALCON 9 DEB 3.6 11:53:18 10° NW 11:56:21 57° NE 11:59:24 10° SE
